Home   Weather   Ceduna   Past weeks
Flag for Australia

Past Weather in Ceduna, South Australia, Australia — Yesterday and Last 2 Weeks

Now
54 °F

Cool.


Feels Like: 52 °F
Forecast: 57 / 47 °F
Wind: 7 mph from Southwest

Location: Ceduna Airport

Current Time: Jun 18, 2019 at 11:15:51 am

Latest Report: Jun 18, 2019 at 10:30 am


Visibility: N/A

Pressure: 30.38 "Hg

Humidity: 83%

Dew Point: 49 °F

Location of CedunaLocation

Past Weather in Ceduna — Graph

°F

Ceduna Temperature Yesterday

Maximum temperature yesterday: 62 °F (at 1:30 pm)
Minimum temperature yesterday: 43 °F (at 12:30 am)
Average temperature yesterday: 53 °F

High & Low Weather Summary for the Past Weeks

 TemperatureHumidityPressure
High79 °F (Jun 11, 3:00 pm)98% (Jun 13, 8:30 am)30.64 "Hg (Jun 13, 8:30 am)
Low33 °F (Jun 6, 6:30 am)26% (Jun 7, 2:30 pm)29.79 "Hg (Jun 9, 2:30 pm)
Average54 °F71%30.23 "Hg
* Reported Jun 3 9:30 am — Jun 18 9:30 am, Ceduna. Weather by CustomWeather, © 2019

Note: Actual official high and low records may vary slightly from our data, if they occured in-between our weather recording intervals... More about our weather records

Advertising

Ceduna Weather History for the Previous 24 Hours

Scroll right to see more
 ConditionsComfort  
Time TempWeatherWind HumidityBarometerVisibility
9:30 am
Tue, Jun 18
53 °FCool.9 mph76%30.36 "HgN/A
9:00 am54 °FOvercast.7 mph73%30.35 "HgN/A
7:30 am49 °FCool.7 mph83%30.32 "HgN/A
6:30 am51 °FCool.8 mph76%30.30 "HgN/A
6:00 am53 °FPassing clouds.8 mph71%30.29 "HgN/A
5:30 am55 °FCool.15 mph59%30.28 "HgN/A
4:30 am54 °FCool.13 mph72%30.27 "HgN/A
3:30 am53 °FCool.9 mph73%30.28 "HgN/A
3:00 am54 °FPassing clouds.17 mph77%30.27 "HgN/A
2:30 am54 °FCool.15 mph67%30.27 "HgN/A
1:30 am53 °FCool.6 mph80%30.26 "HgN/A
12:30 am54 °FCool.17 mph81%30.26 "HgN/A
12:00 am54 °FPassing clouds.13 mph70%30.26 "HgN/A
11:30 pm
Mon, Jun 17
54 °FCool.14 mph76%30.25 "HgN/A
10:30 pm56 °FCool.14 mph82%30.24 "HgN/A
9:30 pm56 °FCool.13 mph90%30.23 "HgN/A
9:00 pm56 °FOvercast.12 mph89%30.22 "HgN/A
8:30 pm55 °FCool.13 mph93%30.22 "HgN/A
7:30 pm56 °FCool.6 mph94%30.21 "HgN/A
6:30 pm56 °FCool.12 mph89%30.19 "HgN/A
6:00 pm59 °FOvercast.8 mph71%30.17 "HgN/A
5:30 pm60 °FCool.12 mph66%30.17 "HgN/A
4:30 pm62 °FCool.9 mph62%30.17 "HgN/A
3:30 pm61 °FCool.14 mph63%30.17 "HgN/A
3:00 pm61 °FOvercast.18 mph63%30.17 "HgN/A
2:30 pm62 °FRefreshingly cool.16 mph56%30.17 "HgN/A
1:30 pm62 °FRefreshingly cool.15 mph57%30.18 "HgN/A
12:30 pm61 °FCool.13 mph62%30.20 "HgN/A
12:00 pm60 °FOvercast.10 mph65%30.21 "HgN/A
11:30 am59 °FCool.10 mph67%30.22 "HgN/A
Weather by CustomWeather, © 2019

See weather overview